Flag for Japan Weather past 2 weeks in Kawasaki, Japan

Now
45 °F

Partly sunny.


Feels Like: 40 °F
Forecast: 46 / 63 °F
Wind: 9 mph from North

Location: Tokyo International Airport

Current Time: Mar 3, 2015 at 1:13:09 PM

Latest Report: Mar 3, 2015 at 12:30 PM


Visibility: N/A

Pressure: 30.12 "Hg

Humidity: 57%

Dew point: 30 °F

Location of KawasakiLocation

Historic Weather in Kawasaki — Graph

°F

Kawasaki temperature yesterday

Maximum temperature yesterday: 55 °F (at 2:00 PM)
Minimum temperature yesterday: 45 °F (at 11:00 PM)
Average temperature yesterday: 50 °F

Past Weeks' High & Low Weather Summary

 TemperatureHumidityPressure
High66 °F (Feb 23, 2:30 PM)100% (Feb 22, 11:47 PM)30.39 "Hg (Feb 22, 11:47 PM)
Low37 °F (Feb 17, 10:00 AM)19% (Feb 16, 3:30 PM)29.45 "Hg (Mar 1, 8:50 PM)
Average46 °F69%29.97 "Hg
* Reported Feb 16 11:00 AM — Mar 3 11:30 AM, Kawasaki, Weather by CustomWeather, © 2015

Note: Actual official high and low records may vary slightly from our data, if they occured in-between our weather recording intervals... More about our weather records

Advertising

Kawasaki weather history for previous 24 hours

 ConditionsComfort  
Time TempWeatherWind HumidityBarometerVisibility
11:30 AM
Tue, Mar 3
43 °FPartly sunny.13 mph61%30.15 "HgN/A
11:00 AM43 °FPartly sunny.13 mph61%30.15 "HgN/A
10:30 AM43 °FPartly sunny.12 mph61%30.15 "HgN/A
10:00 AM43 °FPartly sunny.12 mph61%30.15 "HgN/A
9:30 AM43 °FPartly sunny.12 mph61%30.15 "HgN/A
9:00 AM43 °FPartly sunny.13 mph61%30.12 "HgN/A
8:30 AM43 °FLight rain. Partly sunny.12 mph61%30.12 "HgN/A
8:00 AM43 °FPartly sunny.9 mph61%30.15 "HgN/A
7:30 AM43 °FPartly sunny.8 mph61%30.12 "HgN/A
7:00 AM43 °FPartly sunny.9 mph53%30.12 "HgN/A
6:30 AM43 °FPartly sunny.7 mph53%30.12 "HgN/A
6:00 AM43 °FPassing clouds.9 mph53%30.09 "HgN/A
5:30 AM43 °FPassing clouds.12 mph53%30.09 "HgN/A
5:00 AM43 °FPassing clouds.12 mph57%30.09 "HgN/A
4:30 AM43 °FPassing clouds.12 mph53%30.09 "HgN/A
4:00 AM45 °FPassing clouds.9 mph49%30.09 "HgN/A
3:30 AM45 °FPassing clouds.8 mph49%30.09 "HgN/A
3:00 AM45 °FPassing clouds.9 mph53%30.09 "HgN/A
2:30 AM45 °FPassing clouds.9 mph53%30.09 "HgN/A
2:00 AM45 °FPassing clouds.7 mph53%30.07 "HgN/A
1:30 AM45 °FPassing clouds.9 mph53%30.07 "HgN/A
1:00 AM45 °FPassing clouds.9 mph46%30.07 "HgN/A
12:30 AM46 °FPassing clouds.8 mph43%30.07 "HgN/A
12:00 AM46 °FPassing clouds.10 mph43%30.07 "HgN/A
11:30 PM
Mon, Mar 2
45 °FPassing clouds.8 mph42%30.04 "HgN/A
11:00 PM45 °FPassing clouds.9 mph46%30.04 "HgN/A
10:30 PM46 °FClear.12 mph43%30.04 "Hg10 mi
10:00 PM46 °FClear.10 mph43%30.04 "Hg10 mi
9:30 PM48 °FPassing clouds.12 mph43%30.04 "HgN/A
9:00 PM48 °FClear.13 mph40%30.04 "Hg10 mi
8:30 PM46 °FClear.10 mph37%30.04 "Hg10 mi
8:00 PM48 °FPassing clouds.10 mph37%30.01 "HgN/A
7:30 PM50 °FPassing clouds.9 mph37%29.98 "HgN/A
7:00 PM48 °FPassing clouds.13 mph32%29.98 "HgN/A
6:30 PM50 °FPassing clouds.15 mph35%29.95 "HgN/A
6:00 PM50 °FPassing clouds.12 mph40%29.95 "HgN/A
5:30 PM50 °FPassing clouds.13 mph40%29.92 "HgN/A
5:00 PM52 °FPassing clouds.13 mph38%29.92 "HgN/A
4:30 PM54 °FSunny.13 mph28%29.92 "Hg10 mi
4:00 PM54 °FSunny.13 mph28%29.89 "Hg10 mi
3:30 PM54 °FSunny.14 mph35%29.89 "Hg10 mi
3:00 PM55 °FPassing clouds.14 mph28%29.89 "HgN/A
2:30 PM54 °FPassing clouds.13 mph30%29.89 "HgN/A
2:00 PM55 °FPassing clouds.15 mph26%29.86 "HgN/A
1:30 PM54 °FPassing clouds.15 mph26%29.86 "HgN/A
1:00 PM54 °FPassing clouds.17 mph33%29.86 "HgN/A
Weather by CustomWeather, © 2015

See weather overviewHow to use our weather pages